User: anonymous   Login
Location: Unspecified
(0.0000°N, 0.0000°E)
Time: 18:59:44
(UTC+02:00)
Language:

Ariane H10 - Orbit

View from above orbital plane
View from above orbital plane
View from above satellite
View from above satellite

Ground track
Ground track

The orbit data is extracted from the following two-line orbital elements,

1 21815U 91084C   17083.41937472 +.00000056 +00000-0 +14077-3 0  9998
2 21815 003.9256 113.4384 7186888 008.9555 359.1458 02.31732181210361
Epoch (UTC): 24 March 2017 10:03:53
Eccentricity: 0.7186888
inclination: 3.9256°
perigee height: 407 km
apogee height: 35079 km
right ascension of ascending node: 113.4384°
argument of perigee: 8.9555°
revolutions per day: 2.31732181
mean anomaly at epoch: 359.1458°
orbit number at epoch: 21036

The dashed part of the orbit path shows where the satellite is in the earth's shadow,  

DLR